Regional Weather Roundup
Issued by NWS

Home | Current Version | Previous Version | Text Only | Print | Product List | Glossary Off
Versions: 1 2 3 4 5 6 7 8 9 10 11 12 13 14 15 16 17 18 19 20 21 22 23 24 25 26 27 28 29 30 31 32 33 34 35 36 37 38 39 40 41 42 43 44 45 46 47 48 49 50

000
ASUS43 KMKX 190020
RWRWI

WISCONSIN REGIONAL WEATHER ROUNDUP
NATIONAL WEATHER SERVICE MILWAUKEE/SULLIVAN WI
600 PM CST SAT NOV 18 2017

NOTE: "FAIR" INDICATES FEW OR NO CLOUDS BELOW 12,000 FEET WITH NO
SIGNIFICANT WEATHER AND/OR OBSTRUCTIONS TO VISIBILITY.

WIZ001-002-006>008-014>016-023>028-190100-
NORTHWEST WISCONSIN

CITY           SKY/WX    TMP DP  RH WIND       PRES   REMARKS
SUPERIOR ARPT  CLOUDY    25  13  60 NW18G24   29.94R WCI  12
6HR MIN TEMP:  26; 6HR MAX TEMP:  31;

ASHLAND        CLOUDY    27  17  66 NW14      29.87R WCI  16
6HR MIN TEMP:  27; 6HR MAX TEMP:  32;

HAYWARD        CLOUDY    26  15  63 NW7       29.87R WCI  18
6HR MIN TEMP:  26; 6HR MAX TEMP:  34;

SIREN          CLOUDY    26  15  63 NW15      29.93R WCI  13
6HR MIN TEMP:  26; 6HR MAX TEMP:  33;

CUMBERLAND     CLOUDY    27  18  69 N18       29.87R WCI  13
RICE LAKE      CLOUDY    29  19  66 NW9       29.89R WCI  20
6HR MIN TEMP:  29; 6HR MAX TEMP:  35;

CHETEK         CLOUDY    29  20  69 NW7       29.87R WCI  22
6HR MIN TEMP:  29; 6HR MAX TEMP:  36;

LADYSMITH      CLOUDY    29  20  67 NW16G24   29.84R WCI  18
6HR MIN TEMP:  29; 6HR MAX TEMP:  36;

EAU CLAIRE     CLOUDY    30  19  63 NW10      29.86R WCI  21
6HR MIN TEMP:  30; 6HR MAX TEMP:  40;

MENOMONIE      PTCLDY    30  20  67 W12G18    29.90R WCI  20
6HR MIN TEMP:  30; 6HR MAX TEMP:  39;

NEW RICHMOND   PTCLDY    27  18  67 NW18G24   29.92R WCI  14
6HR MIN TEMP:  27; 6HR MAX TEMP:  36;

OSCEOLA        CLOUDY    28  18  67 NW14G20   29.97R WCI  16
6HR MIN TEMP:  28; 6HR MAX TEMP:  36;

$$

WIZ003>005-009-010-017-018-190100-
NORTH CENTRAL WISCONSIN

CITY           SKY/WX    TMP DP  RH WIND       PRES   REMARKS
MANITOWISH WTR CLOUDY    26  25  99 NW13      29.76R WCI  14
6HR MIN TEMP:  26; 6HR MAX TEMP:  31;

ARBOR VITAE    CLOUDY    29  26  88 NW10G20   29.76R WCI  20
6HR MIN TEMP:  29; 6HR MAX TEMP:  34;

WOODRUFF       CLOUDY    29  26  88 NW10G20   29.76R WCI  20
6HR MIN TEMP:  29; 6HR MAX TEMP:  34;

RHINELANDER    CLOUDY    28  24  85 NW9G18    29.73R WCI  19
6HR MIN TEMP:  28; 6HR MAX TEMP:  33;

EAGLE RIVER    CLOUDY    28  26  94 N18G26    29.73R WCI  15
6HR MIN TEMP:  28; 6HR MAX TEMP:  32;

LAND O LAKES   CLOUDY    28  25  91 NW12G24   29.74R WCI  17
6HR MIN TEMP:  28; 6HR MAX TEMP:  32;

PHILLIPS       CLOUDY    26  20  78 NW10G18   29.79R WCI  16
6HR MIN TEMP:  27; 6HR MAX TEMP:  32;

TOMAHAWK       CLOUDY    28  23  81 NW9       29.76R WCI  19
6HR MIN TEMP:  28; 6HR MAX TEMP:  33;

MEDFORD        CLOUDY    30  22  74 NW15G21   29.76R WCI  19
6HR MIN TEMP:  30; 6HR MAX TEMP:  36;

MERRILL        CLOUDY    30  24  77 N14G21    29.76R WCI  20
6HR MIN TEMP:  30; 6HR MAX TEMP:  35;

$$

WIZ029-030-035-036-043>047-190100-
CENTRAL WISCONSIN

CITY           SKY/WX    TMP DP  RH WIND       PRES   REMARKS
WAUSAU         CLOUDY    31  23  72 NW8G25    29.73R WCI  23
6HR MIN TEMP:  31; 6HR MAX TEMP:  36;

MOSINEE        CLOUDY    32  27  80 N14       29.75R WCI  22
MARSHFIELD     CLOUDY    32  23  69 NW15G24   29.75R WCI  22
6HR MIN TEMP:  32; 6HR MAX TEMP:  39;

STEVENS POINT  CLOUDY    32  25  76 NW9G18    29.74R WCI  24
6HR MIN TEMP:  32; 6HR MAX TEMP:  35;

WAUPACA        CLOUDY    38  27  66 NW13G18   29.73R WCI  30
6HR MIN TEMP:  38; 6HR MAX TEMP:  40;

WAUTOMA        CLOUDY    36  27  69 NW9G17    29.73R WCI  29
WISC RAPIDS    CLOUDY    35  25  66 NW13G25   29.76R WCI  26
6HR MIN TEMP:  35; 6HR MAX TEMP:  39;

CAMP DOUGLAS   PTCLDY   N/A N/A N/A NW15      29.78R
$$

WIZ011>013-019>022-031-037>040-048>050-190100-
NORTHEAST WISCONSIN

CITY           SKY/WX    TMP DP  RH WIND       PRES   REMARKS
ANTIGO         CLOUDY    30  26  84 N15G28    29.71R WCI  19
6HR MIN TEMP:  30; 6HR MAX TEMP:  33;

SHAWANO        CLOUDY    37  28  70 NW12G17   29.71R WCI  29
6HR MIN TEMP:  37; 6HR MAX TEMP:  40;

OCONTO         CLOUDY    36  27  70 N10G21    29.68R WCI  28
6HR MIN TEMP:  36; 6HR MAX TEMP:  39;

STURGEON BAY   CLOUDY    36  27  69 N23       29.66R WCI  24
6HR MIN TEMP:  36; 6HR MAX TEMP:  39;

GREEN BAY      CLOUDY    37  29  72 N13G23    29.69R WCI  29
6HR MIN TEMP:  37; 6HR MAX TEMP:  39;

MANITOWOC      NOT AVBL
APPLETON       CLOUDY    36  25  64 NW12G20   29.68R WCI  27
CLINTONVILLE   CLOUDY    36  27  69 NW16G24   29.71R WCI  26
OSHKOSH        CLOUDY    37  27  67 NW17G24   29.69R WCI  27
6HR MIN TEMP:  37; 6HR MAX TEMP:  38;

$$

WIZ032>034-041-042-053>061-190100-
SOUTHWEST WISCONSIN

CITY           SKY/WX    TMP DP  RH WIND       PRES   REMARKS
LA CROSSE      CLOUDY    38  25  59 NW18      29.83R WCI  28
6HR MIN TEMP:  37; 6HR MAX TEMP:  45;

SPARTA         CLOUDY    34  25  68 NW12G21   29.83R WCI  26
6HR MIN TEMP:  34; 6HR MAX TEMP:  41;

VIROQUA        CLOUDY    34  28  79 NW16G29   29.80R WCI  24
6HR MIN TEMP:  34; 6HR MAX TEMP:  40;

BOSCOBEL       CLEAR     39  27  62 NW9G20    29.81R WCI  33
6HR MIN TEMP:  39; 6HR MAX TEMP:  44;

PRAIRIE DU CHI CLOUDY    38  25  61 NW14G22   29.83R WCI  29
6HR MIN TEMP:  38; 6HR MAX TEMP:  44;

PLATTEVILLE    CLEAR     36  31  82 NW16      29.78R WCI  27
6HR MIN TEMP:  36; 6HR MAX TEMP:  40;

$$

WIZ056-057-062-063-064-067-068-190100-
SOUTH CENTRAL WISCONSIN

CITY           SKY/WX    TMP DP  RH WIND       PRES   REMARKS
REEDSBURG      CLOUDY    36  28  71 NW8       29.75R WCI  30
6HR MIN TEMP:  36; 6HR MAX TEMP:  39;

BARABOO/DELLS  CLOUDY    37  27  68 NW17G24   29.74R WCI  27
6HR MIN TEMP:  36; 6HR MAX TEMP:  38;

LONE ROCK      MOCLDY    39  30  70 NW12      29.77R WCI  32
6HR MIN TEMP:  38; 6HR MAX TEMP:  41;

MINERAL POINT  PTCLDY    37  32  81 NW13G18   29.76R WCI  29
MADISON        PTCLDY    34  29  82 NW7       29.72R WCI  28
6HR MIN TEMP:  34; 6HR MAX TEMP:  39;

MIDDLETON      PTCLDY    36  32  84 NW14      29.73R WCI  27
WATERTOWN      CLOUDY    36  31  82 NW15      29.70R WCI  26
6HR MIN TEMP:  36; 6HR MAX TEMP:  38;

MONROE         CLEAR     34  30  86 NW10      29.73R WCI  26
JANESVILLE     MOCLDY    37  32  81 NW10      29.71R WCI  30
$$

WIZ051-052-058>065-066-070>072-190100-
SOUTHEAST WISCONSIN

CITY           SKY/WX    TMP DP  RH WIND       PRES   REMARKS
MILWAUKEE      CLOUDY    39  31  72 NW12      29.67R WCI  32
6HR MIN TEMP:  39; 6HR MAX TEMP:  40;

WAUKESHA       CLOUDY    36  28  75 NW16G22   29.68R WCI  26
MILWAUKEE/TIMM CLOUDY    37  27  65 NW14G25   29.67R WCI  29
RACINE         CLOUDY    39  30  70 N14G30    29.68R WCI  31
6HR MIN TEMP:  37; 6HR MAX TEMP:  39; 6HR PCP: TRACE;

BURLINGTON     CLOUDY    39  34  81 N15G31    29.69R WCI  31
6HR MIN TEMP:  38; 6HR MAX TEMP:  40;

KENOSHA        CLOUDY    39  29  67 N15G25    29.67R WCI  31
6HR MIN TEMP:  36; 6HR MAX TEMP:  39; 6HR PCP: TRACE;

FOND DU LAC    CLOUDY    37  27  67 NW15      29.70R WCI  28
6HR MIN TEMP:  37; 6HR MAX TEMP:  39;

SHEBOYGAN      CLOUDY    37  30  75 N16G28    29.66R WCI  28
6HR MIN TEMP:  37; 6HR MAX TEMP:  39; 6HR PCP: TRACE;

WEST BEND      CLOUDY    36  30  80 N14G22    29.67R WCI  27
JUNEAU         CLOUDY    36  28  73 NW12G24   29.71R WCI  27
6HR MIN TEMP:  36; 6HR MAX TEMP:  37;

$$

LSZ147-162-190100-
LAKE SUPERIOR

STATION/POSITION TIME  TEMP    WIND        PRES    WAVE
                       AIR SEA DIR/SP/G            HT/PER
                 (UTC) (F)     (DEG/KT/KT) (MB)    (FT/S)
DEVILS ISLAND    0000   27     300/ 20/ 22 1012.3R
SAXON HARBOR     2340   31     310/ 19/ 23 1010.5R
$$

LMZ867-665-643>646-190100-
LAKE MICHIGAN

STATION/POSITION TIME  TEMP    WIND        PRES    WAVE
                       AIR SEA DIR/SP/G            HT/PER
                 (UTC) (F)     (DEG/KT/KT) (MB)    (FT/S)
N MID LAKE BUOY  2350   39 48  330/ 25/ 29 1002.9R   5/ 5
NORTHPORT PIER   0004   37     350/ 24     1004.1
SHEBOYGAN LAKESH 0000   38     320/ 17/ 19 1004.8R
PORT WASHINGTON  2340   39     320/  6/ 11 1005.8R
MILWAUKEE LAKESH 2350   3



USA.gov is the U.S. government's official web portal to all federal, state and local government web resources and services.